Home > Time Zones > World Clock > Weather > Togo > Lome > Past weeks

Flag for Togo Weather past 2 weeks in Lome, Togo

Now
75 °F

Passing clouds.


Feels Like: 74 °F
Forecast: 74 / 81 °F
Wind: 12 mph from Southwest

Location: Lome Airport

Current Time: Aug 1, 2014 at 5:57:16 AM

Latest Report: Aug 1, 2014 at 5:30 AM


Visibility: N/A

Pressure: 29.98 "Hg

Humidity: 94%

Dew point: 73 °F

Location of LomeLocation

Historic Weather in Lome — Graph

°F

Lome temperature yesterday

Maximum temperature yesterday: 81 °F (at 9:30 AM)
Minimum temperature yesterday: 75 °F (at 3:30 AM)
Average temperature yesterday: 78 °F

Past Weeks' High & Low Weather Summary

 TemperatureHumidityPressure
High84 °F (Jul 18, 3:30 PM)100% (Jul 17, 4:00 AM)30.07 "Hg (Jul 17, 4:00 AM)
Low75 °F (Jul 17, 4:00 AM)70% (Jul 21, 12:00 PM)29.89 "Hg (Jul 26, 3:00 PM)
Average78 °F88%29.98 "Hg
* Reported Jul 17 4:00 AM — Aug 1 4:30 AM, Lome, Weather by CustomWeather, © 2014

Note: Actual official high and low records may vary slightly from our data, if they occured in-between our weather recording intervals... More about our weather records

Advertising

Lome weather history for previous 24 hours

 ConditionsComfort  
Time TempWeatherWind HumidityBarometerVisibility
4:30 AM
Aug 1
75 °FPartly cloudy.10 mph100%29.98 "HgN/A
4:00 AM77 °FPartly cloudy.9 mph94%29.98 "HgN/A
3:30 AM77 °FPassing clouds.8 mph89%29.98 "HgN/A
3:00 AM77 °FPassing clouds.7 mph89%29.98 "HgN/A
2:30 AM77 °FPartly cloudy.8 mph89%29.98 "HgN/A
2:00 AM77 °FPassing clouds.7 mph94%29.98 "HgN/A
1:30 AM77 °FPartly cloudy.6 mph89%29.98 "HgN/A
1:00 AM77 °FPartly cloudy.9 mph89%29.98 "HgN/A
12:30 AM77 °FPassing clouds.12 mph89%29.98 "HgN/A
12:00 AM77 °FPartly cloudy.12 mph89%30.01 "HgN/A
11:30 PM
Jul 31
77 °FPartly cloudy.10 mph89%30.01 "HgN/A
11:00 PM77 °FPartly cloudy.12 mph89%30.01 "HgN/A
10:30 PM77 °FPartly cloudy.10 mph89%30.01 "HgN/A
10:00 PM77 °FPartly cloudy.13 mph94%30.01 "HgN/A
9:30 PM77 °FPartly cloudy.14 mph89%29.98 "HgN/A
9:00 PM77 °FPartly cloudy.14 mph94%29.98 "HgN/A
8:30 PM77 °FPassing clouds.12 mph94%29.98 "HgN/A
8:00 PM77 °FPassing clouds.13 mph94%29.98 "HgN/A
7:30 PM77 °FPassing clouds.13 mph94%29.95 "HgN/A
7:00 PM77 °FPassing clouds.13 mph89%29.95 "HgN/A
6:30 PM77 °FPassing clouds.13 mph89%29.95 "HgN/A
6:00 PM77 °FScattered clouds.15 mph89%29.95 "HgN/A
5:30 PM79 °FScattered clouds.14 mph84%29.95 "HgN/A
5:00 PM79 °FScattered clouds.15 mph84%29.92 "HgN/A
4:30 PM79 °FScattered clouds.13 mph84%29.92 "HgN/A
4:00 PM79 °FScattered clouds.13 mph84%29.92 "HgN/A
3:30 PM79 °FScattered clouds.14 mph84%29.92 "HgN/A
3:00 PM79 °FScattered clouds.14 mph84%29.95 "HgN/A
2:30 PM79 °FScattered clouds.15 mph84%29.95 "HgN/A
2:00 PM79 °FBroken clouds.16 mph89%29.95 "HgN/A
1:30 PM81 °FBroken clouds.14 mph84%29.98 "HgN/A
1:00 PM81 °FBroken clouds.15 mph79%29.98 "HgN/A
12:30 PM81 °FLight rain. Partly sunny.13 mph84%29.98 "HgN/A
12:00 PM81 °FLight rain. Partly sunny.13 mph84%29.98 "HgN/A
11:30 AM81 °FPartly sunny.12 mph84%30.01 "HgN/A
11:00 AM81 °FPartly sunny.12 mph84%30.01 "HgN/A
10:30 AM81 °FPartly sunny.9 mph84%30.01 "HgN/A
10:00 AM81 °FBroken clouds.9 mph84%30.01 "HgN/A
9:30 AM81 °FBroken clouds.10 mph84%30.01 "HgN/A
9:00 AM79 °FBroken clouds.9 mph89%30.01 "HgN/A
8:30 AM77 °FBroken clouds.8 mph94%30.04 "Hg5 mi
8:00 AM77 °FBroken clouds.7 mph94%30.01 "Hg5 mi
7:30 AM77 °FBroken clouds.6 mph94%30.01 "Hg5 mi
7:00 AM77 °FBroken clouds.5 mph94%30.01 "Hg5 mi
6:30 AM75 °FScattered clouds.3 mph100%29.98 "Hg5 mi
6:00 AM75 °FPassing clouds.2 mph100%29.98 "Hg5 mi
5:30 AM75 °FPassing clouds.3 mph100%29.98 "Hg5 mi
5:00 AM75 °FPassing clouds.3 mph100%29.98 "Hg5 mi
Weather by CustomWeather, © 2014

See weather overviewHow to use our weather pages